RYR916 LYBE-LZIB

Flight info

Callsign RYR916
Flight time 0h 50m
Altitude 36000
Route TISAK DCT TONDO DCT JOZEP DCT PUCOG DCT BODZA DCT XOMBA
Aircraft B738/M-SDE2E3FGHIRWXY/LB1

Departure

Time 2026-04-27 13:08
Airport Belgrade Nikola Tesla Airport (LYBE)

Arrival

Time 2026-04-27 13:59
Airport M. R. Štefánik Airport (LZIB)
Time Latitude Longitude Altitude Speed Heading
2026-04-27 12:47 44.81773 20.29144 327 ft 0 kts 279°
2026-04-27 13:02 44.81770 20.29168 323 ft 3 kts 279°
2026-04-27 13:02 44.81767 20.29194 324 ft 3 kts 279°
2026-04-27 13:02 44.81763 20.29220 325 ft 3 kts 307°
2026-04-27 13:03 44.81749 20.29232 323 ft 3 kts
2026-04-27 13:03 44.81746 20.29232 323 ft 0 kts 20°
2026-04-27 13:03 44.81747 20.29233 323 ft 0 kts 20°
2026-04-27 13:04 44.81762 20.29239 324 ft 7 kts 18°
2026-04-27 13:04 44.81835 20.29276 326 ft 16 kts 26°
2026-04-27 13:04 44.81943 20.29376 324 ft 20 kts 34°
2026-04-27 13:04 44.82053 20.29475 325 ft 12 kts 23°
2026-04-27 13:05 44.82108 20.29515 326 ft 9 kts 19°
2026-04-27 13:05 44.82160 20.29476 324 ft 10 kts 308°
2026-04-27 13:05 44.82203 20.29380 325 ft 13 kts 302°
2026-04-27 13:05 44.82255 20.29259 325 ft 16 kts 300°
2026-04-27 13:06 44.82320 20.29116 324 ft 19 kts 304°
2026-04-27 13:06 44.82391 20.28956 325 ft 19 kts 299°
2026-04-27 13:06 44.82490 20.28851 322 ft 19 kts
2026-04-27 13:06 44.82585 20.28943 324 ft 15 kts 54°
2026-04-27 13:07 44.82621 20.29064 321 ft 12 kts 78°
2026-04-27 13:07 44.82625 20.29162 324 ft 9 kts 102°
2026-04-27 13:07 44.82612 20.29200 323 ft 0 kts 122°
2026-04-27 13:07 44.82603 20.29221 321 ft 19 kts 123°
2026-04-27 13:08 44.82362 20.29766 328 ft 108 kts 122°
2026-04-27 13:08 44.81838 20.30953 350 ft 177 kts 122°
2026-04-27 13:08 44.81113 20.32578 703 ft 206 kts 121°
2026-04-27 13:08 44.80358 20.34376 1096 ft 220 kts 120°
2026-04-27 13:09 44.79520 20.36233 1532 ft 227 kts 123°
2026-04-27 13:09 44.78637 20.38098 2047 ft 234 kts 123°
2026-04-27 13:09 44.77733 20.40042 2494 ft 241 kts 122°
2026-04-27 13:09 44.76821 20.42042 2988 ft 247 kts 122°
2026-04-27 13:10 44.75898 20.44108 3436 ft 249 kts 121°
2026-04-27 13:10 44.74970 20.46206 3932 ft 257 kts 121°
2026-04-27 13:10 44.74010 20.48384 4396 ft 265 kts 121°
2026-04-27 13:10 44.73032 20.50607 4859 ft 268 kts 120°
2026-04-27 13:11 44.72243 20.52990 5281 ft 273 kts 101°
2026-04-27 13:11 44.72106 20.55626 5756 ft 273 kts 79°
2026-04-27 13:11 44.72915 20.57981 6216 ft 268 kts 42°
2026-04-27 13:11 44.74504 20.59233 6683 ft 262 kts 11°
2026-04-27 13:12 44.76287 20.59769 7139 ft 263 kts
2026-04-27 13:12 44.78092 20.60300 7584 ft 266 kts
2026-04-27 13:12 44.79904 20.60870 8030 ft 268 kts
2026-04-27 13:12 44.81717 20.61476 8474 ft 268 kts 10°
2026-04-27 13:13 44.83529 20.62107 8935 ft 268 kts 10°
2026-04-27 13:13 44.85343 20.62747 9410 ft 268 kts
2026-04-27 13:13 44.87153 20.63390 9879 ft 269 kts
2026-04-27 13:13 44.88991 20.63722 10312 ft 265 kts 348°
2026-04-27 13:14 44.90768 20.62972 10797 ft 275 kts 333°
2026-04-27 13:14 44.92527 20.61724 11247 ft 291 kts 329°
2026-04-27 13:14 44.94347 20.60290 11725 ft 308 kts 328°
2026-04-27 13:14 44.96255 20.58758 12199 ft 323 kts 328°
2026-04-27 13:15 44.98260 20.57155 12681 ft 338 kts 328°
2026-04-27 13:15 45.00351 20.55498 13171 ft 352 kts 329°
2026-04-27 13:15 45.02528 20.53785 13661 ft 364 kts 329°
2026-04-27 13:15 45.04782 20.52019 14140 ft 375 kts 329°
2026-04-27 13:16 45.07099 20.50210 14569 ft 385 kts 329°
2026-04-27 13:16 45.09476 20.48357 14995 ft 394 kts 329°
2026-04-27 13:16 45.11899 20.46469 15468 ft 400 kts 329°
2026-04-27 13:16 45.14348 20.44560 15908 ft 404 kts 329°
2026-04-27 13:17 45.16813 20.42637 16361 ft 406 kts 329°
2026-04-27 13:17 45.19265 20.40722 16815 ft 408 kts 329°
2026-04-27 13:17 45.21759 20.38770 17285 ft 410 kts 329°
2026-04-27 13:17 45.24258 20.36814 17757 ft 411 kts 329°
2026-04-27 13:18 45.26802 20.34819 18239 ft 413 kts 329°
2026-04-27 13:18 45.29287 20.32869 18702 ft 415 kts 329°
2026-04-27 13:18 45.31824 20.30875 19129 ft 417 kts 329°
2026-04-27 13:18 45.34371 20.28871 19564 ft 420 kts 329°
2026-04-27 13:19 45.36935 20.26853 20015 ft 423 kts 329°
2026-04-27 13:19 45.39517 20.24819 20466 ft 426 kts 329°
2026-04-27 13:19 45.42105 20.22729 20915 ft 428 kts 325°
2026-04-27 13:19 45.44413 20.20073 21376 ft 428 kts 315°
2026-04-27 13:20 45.46537 20.17099 21849 ft 429 kts 314°
2026-04-27 13:20 45.48650 20.14081 22317 ft 431 kts 314°
2026-04-27 13:20 45.50769 20.11061 22799 ft 432 kts 314°
2026-04-27 13:20 45.52908 20.08043 23290 ft 434 kts 314°
2026-04-27 13:21 45.55067 20.05024 23785 ft 434 kts 314°
2026-04-27 13:21 45.57235 20.02012 24203 ft 435 kts 314°
2026-04-27 13:21 45.59409 19.99001 24617 ft 435 kts 315°
2026-04-27 13:21 45.61585 19.95989 25078 ft 436 kts 315°
2026-04-27 13:22 45.63762 19.92975 25507 ft 436 kts 315°
2026-04-27 13:22 45.65936 19.89962 25940 ft 435 kts 315°
2026-04-27 13:22 45.68109 19.86946 26389 ft 435 kts 315°
2026-04-27 13:22 45.70273 19.83939 26846 ft 434 kts 315°
2026-04-27 13:23 45.72440 19.80923 27306 ft 434 kts 315°
2026-04-27 13:23 45.74597 19.77917 27774 ft 433 kts 315°
2026-04-27 13:23 45.76750 19.74914 28253 ft 432 kts 315°
2026-04-27 13:23 45.78899 19.71913 28738 ft 431 kts 315°
2026-04-27 13:24 45.81041 19.68917 29223 ft 429 kts 315°
2026-04-27 13:24 45.83170 19.65937 29733 ft 428 kts 315°
2026-04-27 13:24 45.85295 19.62958 30242 ft 426 kts 315°
2026-04-27 13:24 45.87412 19.59988 30684 ft 424 kts 315°
2026-04-27 13:25 45.89489 19.57069 31128 ft 423 kts 315°
2026-04-27 13:25 45.91585 19.54122 31575 ft 421 kts 315°
2026-04-27 13:25 45.93665 19.51193 32030 ft 418 kts 315°
2026-04-27 13:25 45.95741 19.48267 32487 ft 416 kts 315°
2026-04-27 13:26 45.97798 19.45365 32953 ft 414 kts 315°
2026-04-27 13:26 45.99846 19.42472 33431 ft 411 kts 315°
2026-04-27 13:26 46.01877 19.39602 33915 ft 408 kts 315°
2026-04-27 13:26 46.04040 19.36974 34360 ft 406 kts 324°
2026-04-27 13:27 46.06426 19.34833 34792 ft 403 kts 331°
2026-04-27 13:27 46.08982 19.33218 35215 ft 400 kts 338°
2026-04-27 13:27 46.11586 19.31848 35655 ft 397 kts 338°
2026-04-27 13:27 46.14177 19.30508 36090 ft 393 kts 339°
2026-04-27 13:28 46.19388 19.27800 36222 ft 404 kts 338°
2026-04-27 13:28 46.24744 19.24979 36231 ft 415 kts 338°
2026-04-27 13:29 46.30242 19.22059 36224 ft 426 kts 338°
2026-04-27 13:29 46.35869 19.19059 36220 ft 435 kts 338°
2026-04-27 13:30 46.41576 19.16009 36222 ft 438 kts 338°
2026-04-27 13:30 46.47303 19.12943 36206 ft 438 kts 338°
2026-04-27 13:31 46.53012 19.09879 36208 ft 437 kts 338°
2026-04-27 13:31 46.58717 19.06810 36220 ft 437 kts 338°
2026-04-27 13:32 46.63429 19.04271 36131 ft 426 kts 338°
2026-04-27 13:32 46.66196 19.02778 35632 ft 422 kts 338°
2026-04-27 13:32 46.68931 19.01300 35203 ft 417 kts 338°
2026-04-27 13:33 46.71642 18.99833 34747 ft 413 kts 338°
2026-04-27 13:33 46.74324 18.98380 34327 ft 409 kts 338°
2026-04-27 13:33 46.76973 18.96943 33848 ft 405 kts 339°
2026-04-27 13:33 46.79599 18.95517 33357 ft 401 kts 339°
2026-04-27 13:34 46.82203 18.94102 32876 ft 397 kts 339°
2026-04-27 13:34 46.84774 18.92704 32410 ft 394 kts 339°
2026-04-27 13:34 46.87331 18.91311 31956 ft 390 kts 339°
2026-04-27 13:34 46.89867 18.89928 31486 ft 387 kts 339°
2026-04-27 13:35 46.92375 18.88560 31051 ft 384 kts 339°
2026-04-27 13:35 46.94868 18.87198 30609 ft 381 kts 339°
2026-04-27 13:35 46.97335 18.85849 30145 ft 378 kts 339°
2026-04-27 13:35 46.99787 18.84507 29632 ft 374 kts 339°
2026-04-27 13:36 47.02218 18.83176 29127 ft 371 kts 339°
2026-04-27 13:36 47.04627 18.81855 28630 ft 368 kts 339°
2026-04-27 13:36 47.07019 18.80542 28131 ft 366 kts 339°
2026-04-27 13:36 47.09389 18.79239 27669 ft 363 kts 339°
2026-04-27 13:37 47.11745 18.77944 27200 ft 360 kts 339°
2026-04-27 13:37 47.14087 18.76655 26726 ft 358 kts 339°
2026-04-27 13:37 47.16409 18.75376 26271 ft 356 kts 339°
2026-04-27 13:37 47.18689 18.74118 25829 ft 353 kts 338°
2026-04-27 13:38 47.20987 18.72728 25386 ft 351 kts 336°
2026-04-27 13:38 47.23211 18.71279 24952 ft 350 kts 335°
2026-04-27 13:38 47.25398 18.69829 24527 ft 348 kts 335°
2026-04-27 13:38 47.27608 18.68366 24103 ft 347 kts 335°
2026-04-27 13:39 47.29799 18.66924 23658 ft 345 kts 335°
2026-04-27 13:39 47.31991 18.65487 23172 ft 344 kts 335°
2026-04-27 13:39 47.34155 18.64072 22694 ft 343 kts 335°
2026-04-27 13:39 47.36352 18.62637 22210 ft 342 kts 335°
2026-04-27 13:40 47.38519 18.61220 21743 ft 341 kts 334°
2026-04-27 13:40 47.40679 18.59795 21274 ft 339 kts 333°
2026-04-27 13:40 47.42706 18.58045 20813 ft 337 kts 323°
2026-04-27 13:40 47.44559 18.55945 20371 ft 335 kts 321°
2026-04-27 13:41 47.46399 18.53826 19922 ft 334 kts 321°
2026-04-27 13:41 47.48229 18.51725 19487 ft 333 kts 321°
2026-04-27 13:41 47.50058 18.49639 19062 ft 332 kts 321°
2026-04-27 13:41 47.51887 18.47561 18635 ft 331 kts 321°
2026-04-27 13:42 47.53709 18.45500 18169 ft 330 kts 321°
2026-04-27 13:42 47.55556 18.43483 17684 ft 329 kts 322°
2026-04-27 13:42 47.57404 18.41501 17207 ft 328 kts 322°
2026-04-27 13:42 47.59252 18.39524 16757 ft 327 kts 322°
2026-04-27 13:43 47.61090 18.37554 16298 ft 326 kts 322°
2026-04-27 13:43 47.62923 18.35583 15847 ft 325 kts 322°
2026-04-27 13:43 47.64706 18.33547 15398 ft 323 kts 320°
2026-04-27 13:43 47.66496 18.31539 14949 ft 323 kts 322°
2026-04-27 13:44 47.68318 18.29596 14516 ft 322 kts 323°
2026-04-27 13:44 47.70136 18.27672 14080 ft 321 kts 323°
2026-04-27 13:44 47.71945 18.25748 13615 ft 319 kts 322°
2026-04-27 13:44 47.73745 18.23821 13140 ft 318 kts 322°
2026-04-27 13:45 47.75533 18.21895 12676 ft 317 kts 322°
2026-04-27 13:45 47.77309 18.19975 12285 ft 314 kts 322°
2026-04-27 13:45 47.79035 18.18104 12213 ft 300 kts 322°
2026-04-27 13:45 47.80680 18.16316 12202 ft 286 kts 322°
2026-04-27 13:46 47.82254 18.14604 12195 ft 273 kts 322°
2026-04-27 13:46 47.83760 18.12962 12196 ft 266 kts 322°
2026-04-27 13:46 47.85261 18.11322 12212 ft 271 kts 322°
2026-04-27 13:46 47.86804 18.09632 12141 ft 279 kts 322°
2026-04-27 13:47 47.88384 18.07901 11710 ft 285 kts 322°
2026-04-27 13:47 47.89988 18.06143 11268 ft 287 kts 322°
2026-04-27 13:47 47.91580 18.04400 10811 ft 281 kts 322°
2026-04-27 13:47 47.93141 18.02688 10367 ft 276 kts 322°
2026-04-27 13:48 47.94651 18.01031 9921 ft 271 kts 322°
2026-04-27 13:48 47.96155 17.99380 9429 ft 266 kts 322°
2026-04-27 13:48 47.97635 17.97753 8968 ft 262 kts 322°
2026-04-27 13:48 47.99094 17.96149 8526 ft 256 kts 322°
2026-04-27 13:49 48.00503 17.94598 8110 ft 250 kts 322°
2026-04-27 13:49 48.01888 17.93073 7646 ft 244 kts 322°
2026-04-27 13:49 48.03236 17.91587 7215 ft 239 kts 322°
2026-04-27 13:49 48.04551 17.90135 6901 ft 230 kts 322°
2026-04-27 13:50 48.05812 17.88744 6601 ft 221 kts 322°
2026-04-27 13:50 48.07041 17.87388 6322 ft 218 kts 322°
2026-04-27 13:50 48.08244 17.86001 6041 ft 219 kts 315°
2026-04-27 13:50 48.09183 17.84208 5741 ft 221 kts 305°
2026-04-27 13:51 48.10088 17.82302 5363 ft 228 kts 305°
2026-04-27 13:51 48.11020 17.80354 4976 ft 231 kts 305°
2026-04-27 13:51 48.11957 17.78399 4593 ft 231 kts 305°
2026-04-27 13:51 48.12891 17.76449 4206 ft 230 kts 305°
2026-04-27 13:52 48.13823 17.74509 3828 ft 228 kts 305°
2026-04-27 13:52 48.14738 17.72600 3437 ft 224 kts 305°
2026-04-27 13:52 48.15640 17.70718 3069 ft 221 kts 305°
2026-04-27 13:52 48.16530 17.68864 3004 ft 219 kts 306°
2026-04-27 13:53 48.17924 17.64695 2826 ft 231 kts 286°
2026-04-27 13:53 48.18364 17.62390 2626 ft 229 kts 285°
2026-04-27 13:53 48.18793 17.60109 2530 ft 227 kts 285°
2026-04-27 13:54 48.19216 17.57837 2489 ft 226 kts 285°
2026-04-27 13:54 48.19637 17.55568 2498 ft 226 kts 285°
2026-04-27 13:54 48.19965 17.53799 2497 ft 227 kts 285°
2026-04-27 13:54 48.20332 17.51820 2494 ft 226 kts 285°
2026-04-27 13:55 48.20752 17.49549 2480 ft 226 kts 285°
2026-04-27 13:55 48.21172 17.47281 2481 ft 225 kts 285°
2026-04-27 13:55 48.21589 17.45022 2495 ft 224 kts 285°
2026-04-27 13:55 48.22005 17.42773 2495 ft 225 kts 285°
2026-04-27 13:56 48.22425 17.40511 2499 ft 225 kts 285°
2026-04-27 13:56 48.22844 17.38248 2503 ft 226 kts 285°
2026-04-27 13:56 48.23263 17.35980 2501 ft 226 kts 285°
2026-04-27 13:56 48.23681 17.33707 2487 ft 226 kts 285°
2026-04-27 13:57 48.23798 17.31378 2487 ft 226 kts 256°
2026-04-27 13:57 48.22946 17.29454 2515 ft 226 kts 218°
2026-04-27 13:57 48.21668 17.28077 2205 ft 235 kts 218°
2026-04-27 13:57 48.20524 17.26363 1663 ft 230 kts 230°
2026-04-27 13:58 48.19431 17.24680 1034 ft 220 kts 219°
2026-04-27 13:58 48.18352 17.23249 660 ft 193 kts 224°
2026-04-27 13:58 48.17462 17.21934 451 ft 164 kts 222°
2026-04-27 13:58 48.16832 17.21027 441 ft 68 kts 224°
2026-04-27 13:59 48.16619 17.20724 436 ft 24 kts 223°
2026-04-27 13:59 48.16576 17.20594 443 ft 13 kts 289°
2026-04-27 13:59 48.16626 17.20489 434 ft 2 kts 312°
2026-04-27 13:59 48.16636 17.20474 432 ft 4 kts 315°
2026-04-27 14:00 48.16667 17.20429 443 ft 8 kts 314°
2026-04-27 14:00 48.16714 17.20351 435 ft 12 kts 312°
2026-04-27 14:00 48.16779 17.20254 443 ft 14 kts 315°
2026-04-27 14:00 48.16843 17.20161 443 ft 9 kts 314°
2026-04-27 14:01 48.16823 17.20080 443 ft 9 kts 223°
2026-04-27 14:01 48.16779 17.20019 434 ft 7 kts 222°
2026-04-27 14:01 48.16770 17.19988 443 ft 3 kts 284°
2026-04-27 14:01 48.16782 17.19964 443 ft 3 kts 317°
2026-04-27 14:02 48.16797 17.19943 434 ft 3 kts 317°
2026-04-27 14:02 48.16806 17.19931 443 ft 0 kts 318°
2026-04-27 15:02 48.16806 17.19932 443 ft 0 kts 318°
2026-04-27 15:07 48.16805 17.19932 443 ft 0 kts 318°